Home > Weather > Seoul > Past weeks

Flag for South Korea Weather for the Past 2 Weeks in Seoul, South Korea

Now
63 °F

Sunny.


Feels Like: 63 °F
Forecast: 48 / 75 °F
Wind: 21 mph from West

Location: Seoul / Kimp'O International Airport

Current Time: May 4, 2016 at 9:59:20 AM

Latest Report: May 4, 2016 at 9:00 AM


Visibility: 10 mi

Pressure: 29.56 "Hg

Humidity: 34%

Dew Point: 34 °F

Location of SeoulLocation

Historic Weather in Seoul — Graph

°F

Seoul Temperature Yesterday

Maximum temperature yesterday: 64 °F (at 12:00 AM)
Minimum temperature yesterday: 50 °F (at 2:00 PM)
Average temperature yesterday: 58 °F

High & Low Weather Summary for the Past Weeks

 TemperatureHumidityPressure
High84 °F (Apr 26, 4:00 PM)93% (Apr 24, 6:00 AM)30.27 "Hg (Apr 24, 6:00 AM)
Low43 °F (Apr 24, 5:00 AM)8% (Apr 25, 12:00 PM)29.21 "Hg (May 3, 9:00 AM)
Average60 °F54%29.87 "Hg
* Reported Apr 19 8:00 AM — May 4 8:00 AM, Seoul, Weather by CustomWeather, © 2016

Note: Actual official high and low records may vary slightly from our data, if they occured in-between our weather recording intervals... More about our weather records

Advertising

Seoul Weather History for the Previous 24 Hours

Scroll right to see more
 ConditionsComfort  
Time TempWeatherWind HumidityBarometerVisibility
8:00 AM
Wed, May 4
61 °FSunny.22 mph34%29.56 "Hg10 mi
7:00 AM59 °FSunny.20 mph36%29.53 "Hg10 mi
6:00 AM57 °FScattered clouds.17 mph44%29.53 "HgN/A
5:00 AM54 °FPassing clouds.16 mph58%29.53 "HgN/A
4:00 AM54 °FPassing clouds.21 mph58%29.50 "HgN/A
3:00 AM54 °FPassing clouds.21 mph63%29.47 "HgN/A
2:00 AM54 °FMostly cloudy.20 mph63%29.45 "HgN/A
1:00 AM54 °FMostly cloudy.20 mph63%29.45 "HgN/A
12:00 AM52 °FMostly cloudy.23 mph67%29.45 "HgN/A
11:00 PM
Tue, May 3
52 °FMostly cloudy.17 mph67%29.42 "HgN/A
10:00 PM52 °FLight rain. Mostly cloudy.22 mph67%29.42 "Hg5 mi
9:00 PM50 °FLight rain. Mostly cloudy.21 mph76%29.42 "Hg4 mi
8:00 PM50 °FLight rain. Mostly cloudy.18 mph76%29.42 "Hg4 mi
7:00 PM50 °FMostly cloudy.24 mph76%29.39 "Hg4 mi
6:00 PM52 °FMostly cloudy.17 mph72%29.39 "Hg4 mi
5:00 PM52 °FMostly cloudy.22 mph72%29.39 "Hg4 mi
4:00 PM52 °FFog.15 mph72%29.39 "Hg3 mi
3:00 PM50 °FLight rain. Fog.16 mph82%29.36 "Hg3 mi
2:00 PM50 °FLight rain. Fog.20 mph82%29.36 "Hg2 mi
1:00 PM52 °FFog.21 mph88%29.30 "Hg3 mi
12:00 PM54 °FFog.16 mph88%29.30 "Hg2 mi
11:00 AM55 °FLight rain. Fog.24 mph88%29.27 "Hg3 mi
10:00 AM64 °FRain. Fog.21 mph83%29.24 "Hg2 mi
9:00 AM64 °FRain. Fog.20 mph83%29.21 "Hg2 mi
Weather by CustomWeather, © 2016

See weather overviewHow to use our weather pages